When you browse on this site, cookies collect data to enhance your experience and personalize the content and advertising you see.
Visit our Privacy Policy to learn more. By continuing to use the site, you agree to this use of cookies and data.
  • In Belgien
  • Länderverzeichnis
  • Für 7 Tage
  • Wassertemperatur
  • Wetterkarte
  • Widgets
  • user-avatar
    Anmelden

    Stündliche Wetter Sarajevo

    Heute, 18 September, Mittwoch

    Zeit Temperatur Niederschläge Wind Luftdruck Luftfeuchtigkeit
    00:00 +14°C° 0 mm 1 m/S 688 mmHg 85%
    01:00 +14°C° 0 mm 1 m/S 688 mmHg 88%
    02:00 +14°C° 0 mm 1 m/S 688 mmHg 88%
    03:00 +14°C° 0 mm 1 m/S 688 mmHg 87%
    04:00 +13°C° 0 mm 0 m/S 688 mmHg 87%
    05:00 +15°C° 0 mm 1 m/S 689 mmHg 85%
    06:00 +16°C° 0 mm 1 m/S 690 mmHg 83%
    07:00 +18°C° 0 mm 1 m/S 690 mmHg 79%
    08:00 +19°C° 0 mm 1 m/S 691 mmHg 77%
    09:00 +19°C° 0 mm 2 m/S 691 mmHg 74%
    10:00 +20°C° 0 mm 2 m/S 692 mmHg 71%
    11:00 +19°C° 0.3 mm 2 m/S 692 mmHg 74%
    12:00 +18°C° 0.3 mm 3 m/S 692 mmHg 76%
    13:00 +17°C° 0.3 mm 3 m/S 692 mmHg 79%
    14:00 +16°C° 0 mm 3 m/S 691 mmHg 78%
    15:00 +16°C° 0 mm 3 m/S 691 mmHg 78%
    16:00 +14°C° 0 mm 3 m/S 691 mmHg 77%
    17:00 +14°C° 0.1 mm 2 m/S 690 mmHg 80%
    18:00 +13°C° 0.1 mm 2 m/S 690 mmHg 83%
    19:00 +12°C° 0.1 mm 2 m/S 690 mmHg 86%
    20:00 +10°C° 0.2 mm 2 m/S 690 mmHg 88%
    21:00 +10°C° 0.2 mm 2 m/S 690 mmHg 90%
    22:00 +10°C° 0.2 mm 2 m/S 690 mmHg 92%
    23:00 +9°C° 0.2 mm 2 m/S 690 mmHg 93%

    Morgen, 19 September, Donnerstag

    Zeit Temperatur Niederschläge Wind Luftdruck Luftfeuchtigkeit
    00:00 +9°C° 0.2 mm 2 m/S 690 mmHg 93%
    01:00 +9°C° 0.2 mm 2 m/S 690 mmHg 94%
    02:00 +9°C° 0.3 mm 2 m/S 690 mmHg 94%
    03:00 +9°C° 0.3 mm 2 m/S 690 mmHg 94%
    04:00 +9°C° 0.3 mm 2 m/S 689 mmHg 94%
    05:00 +10°C° 0.5 mm 2 m/S 689 mmHg 94%
    06:00 +10°C° 0.5 mm 2 m/S 690 mmHg 93%
    07:00 +10°C° 0.5 mm 2 m/S 690 mmHg 93%
    08:00 +10°C° 0.4 mm 2 m/S 690 mmHg 92%
    09:00 +10°C° 0.4 mm 2 m/S 691 mmHg 92%
    10:00 +10°C° 0.4 mm 2 m/S 691 mmHg 91%
    11:00 +10°C° 0.4 mm 2 m/S 691 mmHg 91%
    12:00 +10°C° 0.4 mm 3 m/S 691 mmHg 91%
    13:00 +10°C° 0.4 mm 3 m/S 691 mmHg 91%
    14:00 +9°C° 0.3 mm 3 m/S 691 mmHg 91%
    15:00 +9°C° 0.3 mm 3 m/S 691 mmHg 90%
    16:00 +9°C° 0.3 mm 3 m/S 691 mmHg 89%
    17:00 +8°C° 0 mm 3 m/S 691 mmHg 90%
    18:00 +8°C° 0 mm 3 m/S 691 mmHg 90%
    19:00 +8°C° 0 mm 3 m/S 691 mmHg 91%
    20:00 +7°C° 0 mm 3 m/S 691 mmHg 91%
    21:00 +7°C° 0 mm 2 m/S 692 mmHg 91%
    22:00 +6°C° 0 mm 2 m/S 692 mmHg 90%
    23:00 +6°C° 0 mm 2 m/S 692 mmHg 89%

    übermorgen, 20 September, Freitag

    Zeit Temperatur Niederschläge Wind Luftdruck Luftfeuchtigkeit
    00:00 +5°C° 0 mm 2 m/S 692 mmHg 88%
    01:00 +5°C° 0 mm 2 m/S 692 mmHg 86%
    02:00 +4°C° 0 mm 2 m/S 692 mmHg 86%
    03:00 +4°C° 0 mm 2 m/S 691 mmHg 86%
    04:00 +4°C° 0 mm 2 m/S 691 mmHg 86%
    05:00 +4°C° 0 mm 2 m/S 692 mmHg 84%
    06:00 +5°C° 0 mm 2 m/S 692 mmHg 82%
    07:00 +5°C° 0 mm 3 m/S 692 mmHg 80%
    08:00 +8°C° 0 mm 3 m/S 693 mmHg 69%
    09:00 +10°C° 0 mm 3 m/S 693 mmHg 58%
    10:00 +12°C° 0 mm 3 m/S 693 mmHg 47%
    11:00 +13°C° 0 mm 3 m/S 693 mmHg 44%
    12:00 +14°C° 0 mm 3 m/S 693 mmHg 40%
    13:00 +16°C° 0 mm 3 m/S 693 mmHg 37%
    14:00 +16°C° 0 mm 3 m/S 693 mmHg 39%
    15:00 +16°C° 0 mm 3 m/S 693 mmHg 41%
    16:00 +14°C° 0 mm 3 m/S 693 mmHg 43%
    17:00 +13°C° 0 mm 2 m/S 693 mmHg 49%
    18:00 +10°C° 0 mm 2 m/S 693 mmHg 56%
    19:00 +7°C° 0 mm 2 m/S 692 mmHg 63%
    20:00 +7°C° 0 mm 2 m/S 692 mmHg 63%
    21:00 +6°C° 0 mm 2 m/S 693 mmHg 64%
    22:00 +6°C° 0 mm 2 m/S 693 mmHg 64%
    23:00 +5°C° 0 mm 2 m/S 693 mmHg 64%

    21 September, Samstag

    Zeit Temperatur Niederschläge Wind Luftdruck Luftfeuchtigkeit
    00:00 +5°C° 0 mm 2 m/S 693 mmHg 65%
    01:00 +5°C° 0 mm 2 m/S 693 mmHg 65%
    02:00 +4°C° 0 mm 2 m/S 692 mmHg 65%
    03:00 +4°C° 0 mm 2 m/S 692 mmHg 65%
    04:00 +4°C° 0 mm 2 m/S 692 mmHg 65%
    05:00 +5°C° 0 mm 2 m/S 692 mmHg 62%
    06:00 +6°C° 0 mm 2 m/S 692 mmHg 59%
    07:00 +8°C° 0 mm 1 m/S 692 mmHg 56%
    08:00 +12°C° 0 mm 1 m/S 693 mmHg 50%
    09:00 +15°C° 0 mm 1 m/S 694 mmHg 43%
    10:00 +19°C° 0 mm 1 m/S 695 mmHg 36%
    11:00 +20°C° 0 mm 1 m/S 695 mmHg 34%
    12:00 +21°C° 0 mm 1 m/S 695 mmHg 33%
    13:00 +23°C° 0 mm 1 m/S 694 mmHg 31%
    14:00 +22°C° 0 mm 1 m/S 694 mmHg 34%
    15:00 +21°C° 0 mm 1 m/S 694 mmHg 38%
    16:00 +21°C° 0 mm 1 m/S 693 mmHg 42%
    17:00 +18°C° 0 mm 1 m/S 693 mmHg 48%
    18:00 +14°C° 0 mm 1 m/S 692 mmHg 54%
    19:00 +11°C° 0 mm 1 m/S 692 mmHg 60%
    20:00 +11°C° 0 mm 1 m/S 692 mmHg 60%
    21:00 +11°C° 0 mm 1 m/S 692 mmHg 59%
    22:00 +10°C° 0 mm 1 m/S 692 mmHg 59%
    23:00 +11°C° 0 mm 1 m/S 692 mmHg 58%

    22 September, Sonntag

    Zeit Temperatur Niederschläge Wind Luftdruck Luftfeuchtigkeit
    00:00 +11°C° 0 mm 1 m/S 692 mmHg 56%
    01:00 +11°C° 0 mm 1 m/S 691 mmHg 55%
    02:00 +11°C° 0 mm 1 m/S 691 mmHg 52%
    03:00 +11°C° 0 mm 1 m/S 691 mmHg 50%
    04:00 +11°C° 0 mm 1 m/S 691 mmHg 47%
    05:00 +12°C° 0 mm 1 m/S 691 mmHg 48%
    06:00 +13°C° 0 mm 1 m/S 691 mmHg 49%
    07:00 +14°C° 0 mm 1 m/S 691 mmHg 50%
    08:00 +16°C° 0 mm 1 m/S 692 mmHg 47%
    09:00 +19°C° 0 mm 1 m/S 692 mmHg 44%
    10:00 +21°C° 0 mm 2 m/S 693 mmHg 41%
    11:00 +21°C° 0 mm 2 m/S 692 mmHg 42%
    12:00 +23°C° 0 mm 2 m/S 692 mmHg 43%
    13:00 +24°C° 0 mm 2 m/S 692 mmHg 44%
    14:00 +23°C° 0 mm 2 m/S 691 mmHg 47%
    15:00 +23°C° 0 mm 2 m/S 691 mmHg 50%
    16:00 +22°C° 0 mm 1 m/S 690 mmHg 52%
    17:00 +20°C° 0 mm 1 m/S 690 mmHg 59%
    18:00 +18°C° 0 mm 1 m/S 690 mmHg 65%
    19:00 +15°C° 0 mm 1 m/S 689 mmHg 71%
    20:00 +14°C° 0 mm 1 m/S 689 mmHg 72%
    21:00 +14°C° 0 mm 2 m/S 689 mmHg 72%
    22:00 +14°C° 0 mm 2 m/S 689 mmHg 73%
    23:00 +14°C° 0 mm 2 m/S 689 mmHg 72%

    23 September, Montag

    Zeit Temperatur Niederschläge Wind Luftdruck Luftfeuchtigkeit
    00:00 +14°C° 0 mm 2 m/S 689 mmHg 70%
    01:00 +14°C° 0 mm 2 m/S 689 mmHg 69%
    02:00 +14°C° 0 mm 2 m/S 688 mmHg 68%
    03:00 +15°C° 0 mm 2 m/S 688 mmHg 67%
    04:00 +15°C° 0 mm 2 m/S 688 mmHg 66%
    05:00 +14°C° 0.7 mm 2 m/S 688 mmHg 75%
    06:00 +14°C° 0.7 mm 2 m/S 687 mmHg 83%
    07:00 +13°C° 0.7 mm 2 m/S 687 mmHg 92%
    08:00 +14°C° 0.4 mm 2 m/S 687 mmHg 92%
    09:00 +14°C° 0.4 mm 2 m/S 687 mmHg 92%
    10:00 +15°C° 0.4 mm 2 m/S 688 mmHg 92%
    11:00 +16°C° 0.1 mm 2 m/S 687 mmHg 90%
    12:00 +17°C° 0.1 mm 3 m/S 687 mmHg 88%
    13:00 +18°C° 0.1 mm 3 m/S 686 mmHg 86%
    14:00 +18°C° 0.4 mm 2 m/S 686 mmHg 87%
    15:00 +18°C° 0.4 mm 2 m/S 685 mmHg 89%
    16:00 +18°C° 0.4 mm 2 m/S 685 mmHg 90%
    17:00 +17°C° 1 mm 2 m/S 685 mmHg 92%
    18:00 +16°C° 1 mm 2 m/S 684 mmHg 94%
    19:00 +15°C° 1 mm 1 m/S 684 mmHg 97%
    20:00 +15°C° 1.4 mm 1 m/S 685 mmHg 97%
    21:00 +15°C° 1.4 mm 1 m/S 685 mmHg 97%
    22:00 +15°C° 1.4 mm 1 m/S 685 mmHg 97%
    23:00 +14°C° 0.2 mm 1 m/S 685 mmHg 97%
    Mehr zeigen